Location: Baili�vre
(50.0696°N, 4.2409°E)
Time: 21:44:26
(UTC+00:00)

Lacrosse 5 - Pass Details

Date: 08 August 2020
Orbit: 716 x 722 km, 57.0° (Epoch: 21 September)

Event Time Altitude Azimuth Distance (km) Brightness Sun altitude
Rises 21:35:40 0° 302° (WNW) 3,134 6.4 -17.9°
Reaches altitude 10° 21:38:03 10° 303° (WNW) 2,212 5.4 -18.1°
Maximum altitude 21:43:10 84° 31° (NNE) 730 1.8 -18.6°
Enters shadow 21:45:30 33° 119° (ESE) 1,205 2.6 -18.8°
